Other Surface Observations
Issued by NWS

Home | Current Version | Previous Version | Text Only | Print | Product List | Glossary On
Versions: 1 2 3 4 5 6 7 8 9 10 11 12 13 14 15 16 17 18 19 20 21 22 23 24 25 26 27 28 29 30 31 32 33 34 35 36 37 38 39 40 41 42 43 44 45 46 47 48 49 50
000
SXUS52 KTAE 011818
OSOTAE
OSOTAE
North Florida/South Alabama/Southwest Georgia Weather Roundup
National Weather Service Tallahassee Florida
200 PM EDT WED OCT 01 2014

Note: "fair" indicates few or no clouds below 12,000 feet with no
significant weather and/or obstructions to visibility.

!FLZ017-115-028-034-025-011900
...North Florida...

CITY           SKY/WX    TMP DP  RH WIND       PRES   REMARKS
TALLAHASSEE    PTSUNNY   83  67  58 NE5       29.97F
APALACHICOLA   SUNNY     84  72  67 E10       29.96F
PERRY          MOSUNNY   68  57  68 NE5       29.97F
CROSS CITY       N/A     85  71  63 N7        29.95F HX  90
JACKSONVILLE   PTSUNNY   81  72  74 NE12      29.96F
$$

!FLZ112-006-005-002-011-011900
...Florida Panhandle...

CITY           SKY/WX    TMP DP  RH WIND       PRES   REMARKS
MARIANNA       PTSUNNY   80  70  71 CALM      29.97F
BONIFAY        MOCLDY    83  67  58 CALM      29.98F
PANAMA CITY NW PTSUNNY   84  67  56 CALM      29.96F
TYNDALL AFB    MOSUNNY   81  76  84 NW6       29.97F
TYND DRONE APT MOCLDY    82  73  74 MISG      29.95F
DE FUNIAK SPR  MOCLDY    81  66  58 CALM      29.99F
EGLIN AFB      MOSUNNY   83  68  61 SE7       29.96F
DESTIN         SUNNY     83  67  58 NE3       29.97F
HURLBURT       FAIR      83  64  52 VRB3      29.95F
CRESTVIEW      PTSUNNY   83  66  56 VRB5      29.99F
PENSACOLA      FAIR      82  68  62 SE7       29.96F
$$

!ALZ063-066-011900
...South Alabama...

CITY           SKY/WX    TMP DP  RH WIND       PRES   REMARKS
DOTHAN         MOSUNNY   81  64  56 CALM      30.02F
OZARK CAIRNS   MOSUNNY   84  64  50 E7        29.98F
FT RUCKER HELI CLOUDY    82  63  52 NE3       29.98F
RUCKER HELI 3  FAIR      81  63  54 VRB3      30.01F
RUCKER HELI 2  FAIR      82  64  54 SW5       29.98F
FLORALA APT    MOSUNNY   81  63  54 CALM      30.00F
ANDALUSIA      CLOUDY    88  64  44 CALM      29.98F
TROY           MOSUNNY   81  64  56 VRB5      30.00F
EUFALA         FAIR      84  64  50 SE5       29.98F
MOBILE         PTSUNNY   82  69  64 CALM      29.97F
$$

!GAZ120>161-011900
...Southwest and South Central Georgia...

CITY           SKY/WX    TMP DP  RH WIND       PRES   REMARKS
THOMASVILLE    CLOUDY    79  68  69 CALM      30.00F
BAINBRIDGE     MOSUNNY   82  72  69 CALM      29.98F
MOODY AFB      CLOUDY    80  68  67 NE5       29.98F
VALDOSTA       CLOUDY    81  68  65 VRB3      29.97F
MOULTRIE       CLOUDY    79  70  73 CALM      30.00F
BLAKELY        PTSUNNY   82  68  61 SE5         N/A
ALBANY         CLOUDY    79  68  69 CALM      30.01F
TIFTON         CLOUDY    77  67  70 CALM      29.99F
FITZGERALD     MOCLDY    83  64  52 CALM      30.01F
CORDELE        CLOUDY    81  66  59 CALM      30.01F
AMERICUS       CLOUDY    79  66  65 CALM      30.02F
HOMERVILLE     CLOUDY    82  70  65 CALM      29.98F
$$

!GMZ750-755-770-775-011900
...Coastal and Buoy Obs...

STATION/POSITION TIME  TEMP    WIND        PRES    VSBY  WAVE
                       AIR SEA DIR/SP/G                  HT/PER
                 (UTC) (F)     (DEG/KT/KT) (MB)    (MI)  (FT/S)
KEATON BEACH     1800   81     200/  2/  4 1014.5F
CEDAR KEY        1800   80     120/  4/  5 1014.2F
C TOWER          1800   78      70/ 11/ 12 1014.3F
APALACHICOLA BUO 1800   81 83   60/  6/  8 1014.1          2/ 5
PANAMA CITY BUOY 1749   81 86  350/  2/  4 1014.3F         1/ 5
MOBILE BUOY      1718   80 83  120/  6/  8 1014.6F         1/ 5
ORANGE BCH AL BU 1800   79 82   90/ 10/ 10 1014.7F         1/ 3
$$



USA.gov is the U.S. government's official web portal to all federal, state and local government web resources and services.